Preview of NWS' New Version of Forecast
This preview is not operational and should not be used for support decisions.

Regional Weather Roundup (RWR)

Issued by National Weather Service (NWS)

                            
000
ASUS42 KTBW 201118
RWRFL 
FLORIDA REGIONAL WEATHER ROUNDUP
NATIONAL WEATHER SERVICE TAMPA BAY RUSKIN FL
700 AM EDT SAT JUL 20 2019

NOTE: "FAIR" INDICATES FEW OR NO CLOUDS BELOW 12,000 FEET WITH NO
SIGNIFICANT WEATHER AND/OR OBSTRUCTIONS TO VISIBILITY.

FLZ001>010-012>015-112-114-115-201200-
PANHANDLE FLORIDA
  
CITY           SKY/WX    TMP DP  RH WIND       PRES   REMARKS
PENSACOLA      FAIR      77  75  93 N3        30.04R                  
PENSACOLA NAS  FAIR      76  75  97 CALM      30.04R                  
MILTON NAS     FAIR      71  71 100 CALM        N/A                   
CRESTVIEW      FAIR      70  68  93 E3        30.07R                  
DUKE FIELD     FAIR      71  71 100 N3        30.05R                  
VALPARAISO     FAIR      73  72  96 NE3       30.04R                  
MARY ESTHER    PTCLDY    72  71  96 CALM      30.03R                  
TRI COUNTY     FAIR      74  73  97 CALM      30.08R                  
PANAMA CITY    FAIR      75  72  90 CALM      30.05R                  
TYNDALL AFB    DRIZZLE   76  73  91 E6        30.05R                  
APALACHICOLA   TSTM      76  71  85 S17       30.06R                  

STATION/POSITION SKY/WX   TEMP    WIND        PRES    WAVE   SWELL
                          AIR SEA DIR/SP/G            HT/PER HT/PER
                          (F)     (DEG/KT/KT) (MB)    (FT/S) (FT/S)
30.1N   87.6W              82 85  260/ 12/ 19 1017.4R   2/ 3
29.2N   88.2W              84 85  200/  8/  8 1016.9R   1/ 5
28.8N   86.0W                 87  140/  8/ 10 1016.8R   1/ 7   2/ 7
PANAMA CITY BEAC           77 86   60/  7/  8 1017.6F
TOWER C                    82     120/ 12/ 13 1018.1R
28.5N   84.5W              84     100/  8/ 10 1017.8R   1/ 4

$$
FLZ011-016>038-118-127-128-134-139-239-201200-
NORTH FLORIDA
  
CITY           SKY/WX    TMP DP  RH WIND       PRES   REMARKS
MARIANNA       FAIR      73  73 100 NE5       30.07R                  
TALLAHASSEE    MOCLDY    73  72  96 E6        30.08R                  
PERRY          FAIR      72  71  97 CALM      30.08S                  
LIVE OAK       CLEAR     70  70 100 CALM      30.07F FOG              
CROSS CITY     FAIR      71  71  98 CALM      30.07R                  
LAKE CITY      FAIR      68  68 100 CALM      30.08S                  
GAINESVILLE    FAIR      69  68  96 W3        30.10R FOG              
WILLISTON      FAIR      72  72  98 CALM      30.07S                  
PALATKA        FAIR      70  68  94 CALM      30.09R                  
MAYPORT NAS    FAIR      77  74  90 W3        30.08R                  
JACKSONVILLE   FAIR      70  69  97 CALM      30.08R                  
JAX NAS        FAIR      74  70  87 W5        30.09R                  
JAX CECIL      CLEAR     68  68 100 CALM      30.08S                  
FERNANDINA BEA FAIR      72  71  98 CALM      30.08S                  
ST AUGUSTINE   FAIR      74  72  93 CALM      30.09R                  
PALM COAST     CLEAR     72  72 100 CALM      30.08R                  

STATION/POSITION SKY/WX   TEMP    WIND        PRES    WAVE   SWELL
                          AIR SEA DIR/SP/G            HT/PER HT/PER
                          (F)     (DEG/KT/KT) (MB)    (FT/S) (FT/S)
SHELL POINT      NOT AVBL
KEATON BEACH               73      40/  4/  5 1018.3R
CEDAR KEY                  79      90/ 11/ 12 1018.1R
FERNANDINA                 78 85   CALM  /  2 1019.3R
30.7N   81.3W                 83                N/A     1/ 8
MAYPORT                    77 83  290/  3/  4 1018.9R
31.4N   80.9W              81 84  210/  8/  8 1018.5R   2/ 8   2/ 8
ST AUGUSTINE               78 76  330/  2/  3 1018.7R

$$
FLZ040-043>046-052-053-057-058-063-144-201200-
INTERIOR CENTRAL FLORIDA
  
CITY           SKY/WX    TMP DP  RH WIND       PRES   REMARKS
OCALA          FAIR      73  72  96 CALM      30.08R                  
LEESBURG       FAIR      75  72  90 NE7       30.07S                  
SANFORD        FAIR      75  73  93 E3        30.07R                  
ORLANDO EXEC   FAIR      76  73  91 E3        30.07S                  
ORLANDO INTL   FAIR      77  74  90 E3        30.07R                  
KISSIMMEE      FAIR      77  75  93 E5        30.08R                  
WINTER HAVEN   FAIR      79  75  87 E6        30.08R                  
BARTOW         FAIR      75  73  94 E5        30.07R                  
SEBRING        FAIR      74  74  98 N3        30.08R                  
OKEECHOBEE     FAIR      72  72 100 NE3       30.06S FOG              

$$
FLZ041-047-054-059-064-141-147-201200-
EAST CENTRAL FLORIDA
  
CITY           SKY/WX    TMP DP  RH WIND       PRES   REMARKS
ORMOND BEACH   CLEAR     72  72 100 CALM      30.08                   
DAYTONA BEACH  FAIR      73  73 100 CALM      30.08R                  
DELAND         FAIR      72  72 100 CALM      30.07S                  
NEW SMYRNA BEA CLEAR     73  72  94 CALM      30.08                   
JFK SPACE CTR  CLEAR     75  66  72 CALM      30.06S                  
TITUSVILLE     PTCLDY    77  75  94 S5        30.07                   
CAPE CANAVERAL PTCLDY    78  52  39 NW3       30.06R                  
PATRICK AFB    FAIR      81  80  99 CALM      30.07R                  
MELBOURNE      FAIR      78  74  87 CALM      30.07R                  
VERO BEACH     FAIR      75  74  96 CALM      30.07R                  
FT PIERCE      FAIR      75  73  93 CALM      30.07R FOG              
STUART         PTCLDY    77  73  88 CALM      30.07S FOG              

STATION/POSITION SKY/WX   TEMP    WIND        PRES    WAVE   SWELL
                          AIR SEA DIR/SP/G            HT/PER HT/PER
                          (F)     (DEG/KT/KT) (MB)    (FT/S) (FT/S)
28.5N   80.2W              83 84  200/  6/  6 1018.0R   2/ 9   2/ 9
28.9N   78.5W              85     160/ 10/ 12 1018.9    3/ 8   2/ 8
TRIDENT PIER               80 83  270/  2/  3 1019.5
28.4N   80.5W                 81                N/A     1/ 9
27.5N   80.2W                 82                N/A     2/ 8

$$
FLZ050-056-061-142-242-148-248-149-249-151-251-155-255-
160-260-201200-
WEST CENTRAL FLORIDA
  
CITY           SKY/WX    TMP DP  RH WIND       PRES   REMARKS
CRYSTAL RIVER  FAIR      73  72  94 CALM      30.07R                  
INVERNESS      FAIR      73  73 100 CALM      30.07R FOG              
BROOKSVILLE    FAIR      73  72  96 CALM      30.08R                  
CLEARWATER AIR FAIR      77  73  88 E3        30.05S                  
ST PETE CLEARW FAIR      77  74  90 SE6       30.05R                  
TAMPA INTL     MOCLDY    78  73  84 E3        30.06R                  
TAMPA EXEC     FAIR      72  72 100 CALM      30.07R FOG              
PLANT CITY     FAIR     N/A N/A N/A MISG      30.09R                  
MACDILL AFB    FAIR      76  73  88 E5        30.05R                  
PETER O KNIGHT CLOUDY   N/A N/A N/A E5        30.06S                  
ST PETERSBURG  FAIR      80  74  81 E10       30.04R                  
SARASOTA       FAIR      75  72  90 E6        30.04R                  
VENICE         FAIR      75  73  94 E6        30.06R                  

STATION/POSITION SKY/WX   TEMP    WIND        PRES    WAVE   SWELL
                          AIR SEA DIR/SP/G            HT/PER HT/PER
                          (F)     (DEG/KT/KT) (MB)    (FT/S) (FT/S)
27.3N   84.2W                 86                N/A     2/ 5
CLEARWATER BEACH           80 88   90/  4/  6 1017.7R
MIDDLE TAMPA BAY           78     120/  9/ 11 1017.6R
VENICE                     75 86   70/  6/  7 1017.5R

$$
FLZ066-069-070-075>078-162-262-165-265-201200-
SOUTHWEST FLORIDA AND KEYS
  
CITY           SKY/WX    TMP DP  RH WIND       PRES   REMARKS
PUNTA GORDA    FAIR      74  73  97 NE5       30.07R                  
FT MYERS       FAIR      74  72  93 CALM      30.04S                  
SOUTHWEST INTL FAIR      75  72  90 NE3       30.05R                  
IMMOKALEE      FAIR      73  72  94 CALM      30.03S                  
MARATHON       FAIR      84  75  74 SE8       30.02R                  
KEY WEST NAS   FAIR      84  75  74 E9        30.01S                  
KEY WEST INTL  FAIR      84  75  74 E10       30.01S                  

STATION/POSITION SKY/WX   TEMP    WIND        PRES    WAVE   SWELL
                          AIR SEA DIR/SP/G            HT/PER HT/PER
                          (F)     (DEG/KT/KT) (MB)    (FT/S) (FT/S)
NAPLES                     76 86              1017.2R
26.0N   85.6W              84 85  140/ 10/ 14 1016.3S   2/ 5   2/ 5
DRY TORTUGAS               83     160/  3/  4 1016.5R
SAND KEY                   84     120/ 13/ 18 1015.0F
SOMBRERO KEY               84     120/ 12/ 14 1016.9
LONG KEY                   81                 1016.0

$$
FLZ067-068-071>074-168-172>174-201200-
SOUTHEAST FLORIDA 
  
CITY           SKY/WX    TMP DP  RH WIND       PRES   REMARKS
W PALM BEACH   MOCLDY    81  74  79 SE7       30.06R                  
BOCA RATON     PTCLDY    82  73  74 SE6       30.05                   
FT LAUDER-EXEC FAIR      81  72  74 SE13G23   30.05R THUNDER          
FT LAUDERDALE  TSTM      79  73  82 SE17G26   30.04R                  
POMPANO BEACH  FAIR      84  75  74 SE10      30.05R                  
PEMBROKE PINES FAIR      80  75  84 VRB5      30.06R                  
OPA LOCKA      FAIR      79  75  87 E7        30.06R THUNDER          
MIAMI          TSTM      84  73  69 E8        30.04R                  
WEST KENDALL     N/A    N/A N/A N/A MISG      30.04R                  
HOMESTEAD      FAIR      81  75  81 E5        30.03R                  

STATION/POSITION SKY/WX   TEMP    WIND        PRES    WAVE   SWELL
                          AIR SEA DIR/SP/G            HT/PER HT/PER
                          (F)     (DEG/KT/KT) (MB)    (FT/S) (FT/S)
PORT EVERGLADES            82     110/  4/ 12 1017.1
VIRGINIA KEY               82 89  150/  3/  9 1016.9R
LAKE WORTH                 83 84  140/  8/ 11 1018.5
FOWEY ROCKS                84 85  130/ 16/ 17 1017.3R
SETTLEMENT POINT           83     130/  8/  9 1018.1R

$$